[[{"header":{"parameterUnit":"m.s-1","parameterCategory":1,"la1":30.2991,"la2":30.254,"lo1":-89.0895,"lo2":-89.0444,"dy":0.0017,"dx":0.0017,"nx":28,"ny":28,"refTime":"2025-02-27T03:00:00:Z","depth":0,"parameterNumber":2,"parameterNumberName":"U-component_of_WINDS"},"data":[0,0,0,0,0,0,0,0,0,0,0,0,0,0,0,0,0,0,0,0,0,0,0,0,0,0,0,0,0,0,0,0,0,0,0,0,0,0,0,0,0,0,0,0,0,0,0,0,0,0,0,0,0,0,0,0,0,0,2.4433,2.4433,0,2.447,2.4471,2.4471,2.4482,2.4482,2.4481,2.4481,2.4521,2.4522,2.4524,0,0,0,0,0,0,0,0,0,0,0,0,0,2.4372,2.4373,2.4433,2.4433,2.4434,2.447,2.4471,2.4471,2.4482,2.4482,2.4481,2.4481,2.4521,2.4522,2.4524,0,0,0,0,0,0,0,0,0,0,0,0,0,2.4403,2.4373,2.4433,2.4443,2.4444,2.447,2.4471,2.4472,2.4482,2.4482,2.4481,2.4481,2.452,2.4522,2.4524,2.4542,0,0,2.453,2.453,0,0,0,0,0,0,0,0,2.4401,2.4405,2.4441,2.4442,2.4444,2.4471,2.4464,2.4495,2.4482,2.4468,2.4481,2.4481,2.4505,2.4508,2.4516,2.4544,2.4546,2.453,2.4531,2.4532,2.4532,0,0,0,0,0,0,0,2.4399,2.4404,2.4448,2.4442,2.4443,2.4447,2.4451,2.447,2.4488,2.4469,2.447,2.4474,2.4505,2.4514,2.4517,2.4546,2.453,2.4531,2.4533,2.4533,2.4594,2.4595,0,0,0,0,0,0,2.4395,2.4402,2.4446,2.4449,2.4421,2.4448,2.4453,2.4463,2.4487,2.4491,2.4474,2.4474,2.4511,2.4515,2.4518,2.4543,2.4532,2.4534,2.4535,2.4594,2.4595,2.4595,0,0,0,0,0,0,2.4393,2.4399,2.4445,2.4426,2.4432,2.445,2.4461,2.4464,2.4472,2.4491,2.4495,2.4479,2.4511,2.4516,2.4537,2.4544,2.4534,2.4536,2.4593,2.4594,2.4595,2.4592,0,0,0,0,0,0,2.4392,2.4398,2.4404,2.4426,2.4433,2.4462,2.4461,2.4465,2.4475,2.4476,2.4497,2.4501,2.4511,2.4534,2.4539,2.4547,2.4538,2.4593,2.4594,2.4595,2.4591,2.4592,2.4593,0,0,0,0,0,2.4389,2.4402,2.4405,2.441,2.4441,2.4462,2.4466,2.4477,2.4476,2.4483,2.4496,2.45,2.4543,2.4536,2.4541,2.455,2.4592,2.4593,2.4594,2.4591,2.4592,2.4593,0,0,0,0,0,0,2.4381,2.4404,2.4408,2.4427,2.4443,2.4464,2.4473,2.4478,2.4494,2.4494,2.4508,2.4513,2.4533,2.4544,2.4536,2.4571,2.4568,2.457,2.4563,2.4564,2.4565,2.4563,2.4539,0,0,0,0,0,2.4381,2.4396,2.4416,2.4431,2.4439,2.4455,2.4464,2.4472,2.4488,2.4495,2.4509,2.4526,2.4543,2.4554,2.4571,2.4593,2.4599,2.4602,2.4603,2.4604,2.4605,2.462,2.4622,2.4599,2.4599,2.4599,0,0,2.4382,2.4397,2.4405,2.443,2.4442,2.4459,2.446,2.4476,2.4489,2.4497,2.4519,2.453,2.4549,2.4571,2.4582,2.4581,2.4613,2.4605,2.4605,2.4607,2.4621,2.4624,2.4626,2.4599,2.4599,2.4599,0,0,2.4391,2.4403,2.4418,2.4432,2.4451,2.4462,2.4466,2.4487,2.4495,2.4516,2.4524,2.4539,2.4568,2.4583,2.4594,2.4612,2.4617,2.4617,2.4622,2.4636,2.4638,2.464,2.4648,2.465,2.4619,2.4619,2.4619,0,2.439,2.4413,2.4425,2.4442,2.4454,2.4463,2.4479,2.4491,2.4516,2.4524,2.4522,2.4561,2.4574,2.4601,2.4606,2.4614,2.462,2.4614,2.4636,2.4638,2.464,2.4648,2.4651,2.4619,2.4619,2.4619,2.4619,0,2.4411,2.4428,2.4438,2.4462,2.4474,2.4491,2.4506,2.4518,2.4525,2.4537,2.456,2.4577,2.4598,2.4605,2.4612,2.4633,2.4632,2.4634,2.4631,2.4642,2.465,2.4653,2.4619,2.4619,2.4619,2.4619,0,0,2.4415,2.4447,2.445,2.4462,2.4486,2.4499,2.4517,2.4538,2.4549,2.4566,2.4582,2.4608,2.461,2.4622,2.4631,2.4643,2.4659,2.4643,2.4644,2.4647,2.4686,2.4686,2.4689,2.4662,2.4663,2.4663,2.4685,0,2.4428,2.446,2.4472,2.4498,2.4515,2.4525,2.4541,2.4558,2.457,2.4587,2.46,2.4619,2.4619,2.4627,2.4639,2.4654,2.4667,2.4653,2.4679,2.468,2.4674,2.4692,2.4692,2.4711,2.4688,2.4688,2.4689,0,2.4448,2.4466,2.4493,2.4517,2.4525,2.4539,2.4561,2.4576,2.4596,2.4604,2.462,2.4628,2.4649,2.4645,2.4675,2.4665,2.4676,2.4686,2.4687,2.469,2.4685,2.4697,2.4717,2.472,2.4693,2.4693,2.4692,0,2.4449,2.448,2.4502,2.4511,2.4539,2.4549,2.4561,2.4581,2.4594,2.4614,2.4623,2.4644,2.4656,2.4673,2.4688,2.4683,2.4717,2.4714,2.4726,2.4725,2.4732,2.4732,2.4755,2.4738,2.4738,2.4738,2.4738,0,2.4463,2.448,2.4503,2.4516,2.4536,2.4551,2.4571,2.4584,2.4602,2.4619,2.463,2.4645,2.4664,2.4682,2.4694,2.4718,2.4723,2.4731,2.4734,2.4731,2.473,2.4739,2.4738,2.4739,2.4739,2.4739,2.4738,0,2.4467,2.4483,2.4508,2.4533,2.454,2.4554,2.4576,2.459,2.4603,2.4625,2.4631,2.4651,2.4674,2.4691,2.472,2.4728,2.4754,2.4757,2.4748,2.4749,2.476,2.476,2.4791,2.4797,2.4775,2.4775,2.4775,0,2.4475,2.4489,2.4516,2.4528,2.4541,2.456,2.4574,2.459,2.4604,2.463,2.4641,2.4665,2.4684,2.4721,2.4739,2.4762,2.4766,2.4776,2.477,2.4767,2.4768,2.4768,2.477,2.4777,2.4777,2.4777,2.4777,0,2.4488,2.4496,2.4515,2.4538,2.4554,2.4573,2.4592,2.4601,2.4621,2.4637,2.466,2.4676,2.4707,2.4731,2.4756,2.477,2.4778,2.4779,2.4783,2.478,2.4775,2.4779,2.4751,2.4778,2.4778,2.4778,2.4778,2.4778,2.4496,2.4509,2.4531,2.4553,2.4569,2.4587,2.4602,2.4618,2.4638,2.4664,2.4673,2.4698,2.4721,2.4756,2.477,2.4791,2.4791,2.4796,2.4798,2.48,2.48,2.4771,2.4796,2.4796,2.4796,2.4796,2.4796,0,2.451,2.4525,2.4545,2.4572,2.459,2.4595,2.4617,2.4632,2.4654,2.4674,2.4694,2.4723,2.4747,2.4768,2.4794,2.4806,2.4811,2.4813,2.4812,2.4816,2.4798,2.4793,2.4809,2.4809,2.4809,2.4809,2.4809,2.4809,2.452,2.4543,2.4554,2.4587,2.4603,2.4628,2.464,2.4657,2.4674,2.4706,2.4726,2.474,2.4761,2.4789,2.4812,2.4818,2.4827,2.4828,2.4835,2.4818,2.4817,2.4815,2.481,2.483,2.483,2.4851,2.4852,2.4852]},{"header":{"parameterUnit":"m.s-1","parameterCategory":1,"la1":30.2991,"la2":30.254,"lo1":-89.0895,"lo2":-89.0444,"dy":0.0017,"dx":0.0017,"nx":28,"ny":28,"refTime":"2025-02-27T03:00:00:Z","depth":0,"parameterNumber":3,"parameterNumberName":"V-component_of_WINDS"},"data":[0,0,0,0,0,0,0,0,0,0,0,0,0,0,0,0,0,0,0,0,0,0,0,0,0,0,0,0,0,0,0,0,0,0,0,0,0,0,0,0,0,0,0,0,0,0,0,0,0,0,0,0,0,0,0,0,0,0,-0.5236,-0.5235,0,-0.5072,-0.507,-0.5068,-0.5104,-0.5107,-0.5111,-0.5113,-0.494,-0.4933,-0.4925,0,0,0,0,0,0,0,0,0,0,0,0,0,-0.5582,-0.5575,-0.5237,-0.5235,-0.5233,-0.5072,-0.507,-0.5068,-0.5104,-0.5108,-0.5111,-0.5115,-0.4943,-0.4934,-0.4925,0,0,0,0,0,0,0,0,0,0,0,0,0,-0.5426,-0.5573,-0.5237,-0.5231,-0.5229,-0.5073,-0.507,-0.5067,-0.5103,-0.5108,-0.5112,-0.5117,-0.4946,-0.4935,-0.4924,-0.4761,0,0,-0.4889,-0.4884,0,0,0,0,0,0,0,0,-0.5435,-0.5413,-0.5234,-0.5232,-0.5229,-0.5114,-0.5128,-0.4964,-0.5102,-0.5151,-0.5114,-0.5119,-0.4994,-0.4979,-0.4938,-0.4753,-0.4745,-0.4888,-0.4881,-0.4876,-0.4873,0,0,0,0,0,0,0,-0.5445,-0.542,-0.5171,-0.5232,-0.5228,-0.5237,-0.522,-0.5097,-0.5048,-0.5147,-0.5149,-0.5129,-0.4993,-0.4948,-0.4934,-0.4743,-0.4888,-0.4878,-0.4871,-0.4867,-0.4421,-0.4417,0,0,0,0,0,0,-0.5459,-0.5429,-0.5177,-0.5166,-0.5345,-0.5227,-0.5208,-0.5146,-0.5049,-0.5039,-0.5126,-0.5132,-0.4965,-0.4947,-0.4928,-0.4734,-0.4877,-0.4866,-0.486,-0.4426,-0.442,-0.4415,0,0,0,0,0,0,-0.5466,-0.5436,-0.5183,-0.5298,-0.5267,-0.5216,-0.5146,-0.514,-0.5095,-0.5033,-0.5025,-0.5089,-0.4968,-0.4944,-0.4804,-0.4729,-0.4861,-0.4851,-0.4432,-0.4424,-0.4417,-0.4344,0,0,0,0,0,0,-0.5476,-0.5438,-0.5376,-0.5297,-0.5261,-0.5061,-0.5141,-0.5133,-0.5076,-0.5083,-0.4997,-0.4987,-0.497,-0.482,-0.4792,-0.4716,-0.4842,-0.4439,-0.4429,-0.442,-0.4353,-0.4335,-0.432,0,0,0,0,0,-0.5488,-0.536,-0.5372,-0.5342,-0.5182,-0.5057,-0.5036,-0.5021,-0.507,-0.5007,-0.4968,-0.499,-0.4742,-0.4805,-0.4774,-0.4693,-0.4443,-0.4432,-0.4421,-0.4361,-0.4339,-0.432,0,0,0,0,0,0,-0.5428,-0.5349,-0.5362,-0.5204,-0.5138,-0.5064,-0.4983,-0.4997,-0.4914,-0.4923,-0.4906,-0.4886,-0.4745,-0.4705,-0.4777,-0.4533,-0.46,-0.4581,-0.4565,-0.4543,-0.4527,-0.454,-0.4833,0,0,0,0,0,-0.5397,-0.5304,-0.5239,-0.5106,-0.5072,-0.5034,-0.4979,-0.4973,-0.4903,-0.4874,-0.4824,-0.4754,-0.4661,-0.46,-0.451,-0.4348,-0.4331,-0.4277,-0.426,-0.4247,-0.4231,-0.4147,-0.4123,-0.4377,-0.4377,-0.4377,0,0,-0.5331,-0.5276,-0.5218,-0.5093,-0.504,-0.4945,-0.5009,-0.4903,-0.4833,-0.4857,-0.4724,-0.4685,-0.4606,-0.4455,-0.4386,-0.4417,-0.4158,-0.4232,-0.4222,-0.4214,-0.4133,-0.4109,-0.4088,-0.4369,-0.4371,-0.4372,0,0,-0.5162,-0.511,-0.4996,-0.4944,-0.4865,-0.4841,-0.4813,-0.4738,-0.4714,-0.458,-0.4598,-0.4513,-0.4352,-0.4296,-0.4247,-0.4062,-0.408,-0.4033,-0.3946,-0.3864,-0.3844,-0.3826,-0.3763,-0.3741,-0.4018,-0.4018,-0.4018,0,-0.5089,-0.4946,-0.4935,-0.4829,-0.4775,-0.4797,-0.4682,-0.463,-0.4525,-0.4488,-0.4525,-0.4327,-0.4274,-0.4113,-0.4069,-0.4027,-0.3997,-0.4043,-0.3848,-0.383,-0.3813,-0.3753,-0.3729,-0.4013,-0.4014,-0.4014,-0.4014,0,-0.4863,-0.4763,-0.468,-0.4583,-0.4519,-0.4408,-0.4381,-0.4318,-0.4319,-0.4292,-0.4157,-0.4096,-0.3997,-0.3958,-0.3956,-0.3797,-0.382,-0.3852,-0.3919,-0.3784,-0.3728,-0.3705,-0.4006,-0.4008,-0.4009,-0.401,0,0,-0.4649,-0.455,-0.452,-0.4478,-0.4394,-0.4317,-0.4209,-0.4115,-0.4062,-0.399,-0.3901,-0.3766,-0.3798,-0.3741,-0.3734,-0.3662,-0.3524,-0.3704,-0.3702,-0.3675,-0.335,-0.3328,-0.3301,-0.3536,-0.3531,-0.3528,-0.3358,0,-0.4474,-0.4286,-0.4275,-0.4105,-0.4015,-0.4036,-0.3943,-0.3882,-0.3854,-0.3774,-0.3743,-0.3649,-0.3696,-0.3663,-0.3592,-0.3556,-0.3459,-0.3568,-0.3454,-0.345,-0.3475,-0.3271,-0.3246,-0.3088,-0.3335,-0.3331,-0.3329,0,-0.4245,-0.417,-0.3992,-0.3926,-0.3888,-0.3804,-0.3719,-0.3641,-0.3574,-0.3559,-0.3499,-0.3504,-0.3395,-0.3465,-0.3316,-0.339,-0.3343,-0.3319,-0.3313,-0.3302,-0.3382,-0.3257,-0.3037,-0.3014,-0.3293,-0.3296,-0.3299,0,-0.4111,-0.3965,-0.384,-0.3803,-0.3722,-0.3664,-0.3627,-0.3565,-0.351,-0.3435,-0.34,-0.3313,-0.3265,-0.3198,-0.318,-0.3232,-0.3032,-0.31,-0.3018,-0.3019,-0.2975,-0.2979,-0.2747,-0.2942,-0.2942,-0.2942,-0.2943,0,-0.3918,-0.3809,-0.378,-0.3703,-0.3583,-0.3572,-0.3452,-0.3419,-0.3364,-0.3283,-0.3294,-0.3217,-0.3197,-0.3116,-0.3101,-0.2982,-0.2959,-0.2945,-0.2943,-0.2945,-0.2948,-0.2915,-0.2926,-0.2936,-0.2938,-0.2939,-0.294,0,-0.3748,-0.3723,-0.359,-0.3526,-0.3508,-0.3422,-0.3368,-0.3295,-0.3271,-0.3167,-0.3142,-0.3104,-0.301,-0.2985,-0.2872,-0.2862,-0.2723,-0.2729,-0.2746,-0.2747,-0.2668,-0.2677,-0.2408,-0.2374,-0.2589,-0.2587,-0.2586,0,-0.3627,-0.3544,-0.3473,-0.3421,-0.3383,-0.3297,-0.3243,-0.3229,-0.3172,-0.3093,-0.303,-0.2939,-0.2865,-0.2715,-0.2676,-0.2591,-0.2597,-0.2509,-0.2584,-0.2591,-0.2599,-0.2606,-0.2599,-0.2495,-0.2493,-0.2491,-0.2489,0,-0.3417,-0.341,-0.3332,-0.3251,-0.3187,-0.3122,-0.306,-0.3016,-0.2994,-0.293,-0.2836,-0.2779,-0.2667,-0.2577,-0.2492,-0.2454,-0.2468,-0.2466,-0.2444,-0.2446,-0.2461,-0.2455,-0.271,-0.2472,-0.2474,-0.2475,-0.2476,-0.2477,-0.3269,-0.3198,-0.3139,-0.3053,-0.3006,-0.2949,-0.2879,-0.2848,-0.277,-0.2679,-0.2675,-0.2574,-0.2513,-0.2401,-0.2359,-0.228,-0.2307,-0.2273,-0.2264,-0.2257,-0.2252,-0.2472,-0.2264,-0.2265,-0.2265,-0.2266,-0.2266,0,-0.3062,-0.3026,-0.2947,-0.2862,-0.2796,-0.2817,-0.2751,-0.2693,-0.2605,-0.2547,-0.2476,-0.237,-0.2285,-0.2241,-0.2157,-0.2102,-0.2107,-0.208,-0.2085,-0.2077,-0.2231,-0.2261,-0.2078,-0.2078,-0.2078,-0.2078,-0.2079,-0.2079,-0.2947,-0.283,-0.2817,-0.2678,-0.2642,-0.2545,-0.2506,-0.2454,-0.2409,-0.2291,-0.2221,-0.2194,-0.2143,-0.2056,-0.1979,-0.1968,-0.1938,-0.1908,-0.1902,-0.2046,-0.2066,-0.2084,-0.2112,-0.1901,-0.1901,-0.1755,-0.1753,-0.1752]}]]